Theta_e
326 326 327 327 326 325 324 324 323 323 322 322 322 321 321 320 321 321 321 321 321 321 321 323 324 326 327 321 321 350 360 362 354 355 354 341 334 332 326 328 327 325 328 331 334 334 334
326 326 326 325 324 324 323 323 323 323 322 322 321 321 320 320 320 320 321 320 320 321 321 323 325 327 324 313 348 354 346 351 349 352 347 340 335 334 329 327 324 328 329 328 332 333 334
326 325 325 324 324 323 322 322 323 322 322 322 321 320 320 320 320 320 320 320 320 321 322 323 325 329 321 319 334 348 350 348 353 346 339 340 337 332 330 325 330 329 324 321 329 332 327
325 324 324 323 323 322 322 322 322 322 321 320 320 320 320 320 320 320 319 319 319 321 322 324 327 328 319 327 332 338 347 345 349 347 343 344 340 332 327 330 327 320 322 316 327 332 327
324 323 323 323 323 322 322 321 322 321 320 320 320 319 319 320 320 320 319 319 320 323 325 327 326 323 316 325 320 331 340 338 342 342 342 342 335 327 325 321 318 317 311 314 320 328 329
324 323 323 322 322 321 321 321 321 320 320 320 319 319 319 320 319 318 317 318 323 326 326 329 327 319 320 317 322 328 340 338 331 333 331 330 328 322 320 317 307 311 312 314 316 318 320
323 323 323 322 322 321 321 321 321 320 320 320 320 318 319 319 318 317 319 325 323 321 324 322 316 317 317 322 324 325 336 332 329 323 318 323 317 313 316 318 317 318 315 315 318 322 319
323 322 322 322 321 321 321 321 320 320 320 320 318 318 319 318 317 316 319 325 324 325 319 322 317 317 320 322 316 320 331 323 320 314 318 316 312 316 317 317 314 313 313 314 317 320 320
322 322 321 321 321 321 321 320 320 319 319 319 318 317 318 317 316 316 324 327 330 329 317 314 318 316 317 319 316 316 324 322 317 313 313 310 313 316 313 311 310 311 311 312 314 318 320
322 321 321 321 321 320 320 320 319 319 319 318 317 316 317 315 314 328 327 330 332 330 312 310 313 317 318 320 315 321 321 320 316 311 312 312 315 312 310 309 311 307 313 312 311 311 308
322 321 321 321 320 320 319 319 319 319 318 317 317 316 315 312 322 325 330 332 332 326 303 313 315 322 320 316 317 316 321 319 312 312 312 309 311 310 309 310 313 309 313 312 311 310 310
322 321 321 320 320 319 319 319 319 318 317 317 316 314 313 318 322 326 332 332 329 311 301 311 314 313 312 315 314 317 316 318 318 313 313 312 316 313 311 313 313 315 312 312 311 309 304
322 321 320 320 319 318 318 318 318 317 317 316 314 312 313 326 329 334 333 327 314 307 314 311 311 313 313 311 312 312 311 310 308 306 307 311 311 314 314 310 315 315 310 303 302 302 302
321 320 320 319 318 318 318 318 317 317 316 314 311 310 317 324 332 334 331 320 309 310 311 315 314 313 310 312 312 312 311 309 314 311 308 306 303 311 315 313 311 312 310 303 298 299 302
321 320 319 319 318 317 317 317 317 316 315 313 310 329 329 336 333 333 324 313 312 313 314 313 314 311 311 312 312 311 311 312 314 314 308 309 308 316 315 315 314 310 308 312 306 307 302
321 320 319 318 318 318 317 317 316 315 314 313 325 333 333 336 335 330 319 309 315 317 316 315 310 313 310 312 310 311 312 315 313 315 317 313 307 315 315 318 317 313 315 305 306 300 298
321 320 319 318 318 317 317 317 316 315 313 313 327 326 332 334 332 322 314 316 316 319 318 314 313 312 312 312 313 312 313 316 317 315 317 314 311 311 315 313 311 311 309 308 309 308 301
319 319 319 318 317 317 317 316 315 313 312 322 327 319 333 332 318 320 316 318 309 317 319 317 316 315 314 314 312 313 311 315 318 318 312 316 312 307 309 315 316 313 309 308 303 304 307
319 318 318 317 317 317 316 315 314 313 312 318 322 324 333 327 312 315 320 317 316 316 317 316 315 316 317 313 310 314 315 318 318 316 314 316 310 303 306 311 314 311 312 312 310 309 305
316 317 317 316 316 316 316 315 313 312 312 318 325 318 324 325 322 317 316 315 315 318 316 317 317 318 316 314 316 312 313 316 317 316 326 317 309 305 302 307 311 309 311 312 309 304 305
315 315 316 316 316 315 315 314 313 312 313 321 328 319 322 316 319 320 318 316 314 314 318 318 315 316 314 312 314 313 315 316 317 319 316 314 307 310 310 311 311 310 309 309 307 308 304
315 315 315 316 315 315 315 314 314 313 312 328 320 319 322 319 319 317 313 314 313 315 316 314 314 315 316 313 314 312 315 315 313 317 315 316 309 311 308 311 311 308 310 310 310 309 308
313 313 314 314 314 315 314 314 314 313 314 327 328 327 322 315 316 316 315 316 317 317 318 318 316 315 314 316 318 319 319 317 316 314 313 312 310 308 304 310 309 305 310 310 309 311 309
312 312 312 313 313 313 313 314 314 314 313 321 327 325 319 314 316 316 317 318 316 318 315 317 318 315 319 324 322 320 318 316 316 315 316 312 311 309 305 308 299 310 315 312 310 310 311
311 311 312 312 312 312 312 312 313 315 314 317 324 325 320 315 318 317 317 317 318 318 317 316 318 321 323 319 313 310 310 313 315 316 316 316 312 307 303 303 307 310 313 311 310 311 317
311 311 311 311 311 311 311 311 312 315 314 316 321 330 322 316 314 320 318 319 316 316 317 318 323 324 321 316 312 306 304 309 309 312 317 314 313 308 306 302 300 311 315 318 317 307 321
310 310 310 310 310 310 310 311 312 313 315 315 317 323 323 315 319 319 315 317 321 319 315 318 320 320 322 314 308 306 306 313 307 308 310 310 311 306 306 304 307 315 317 318 305 310 320
310 310 309 309 309 309 310 310 311 312 314 314 316 322 324 318 319 322 322 320 319 319 315 319 317 318 316 311 310 309 308 311 310 313 312 310 309 307 309 306 302 319 317 311 318 320 320
310 309 309 308 309 309 309 309 310 310 312 313 312 322 328 320 319 324 323 325 325 325 320 321 318 319 320 315 314 313 310 313 312 307 317 308 312 310 311 311 320 320 319 320 320 319 320
Wind_Speed
17 17 17 17 17 17 18 19 19 18 18 18 17 16 16 15 14 13 13 13 14 14 14 15 15 14 10 10 11 6 6 7 10 11 15 17 18 14 19 12 10 11 7 10 11 7 11
17 18 18 19 20 20 19 19 19 17 18 18 17 16 16 15 14 14 14 12 13 14 15 14 13 15 7 15 15 10 9 10 11 14 19 13 15 16 19 21 9 10 1 6 10 9 11
19 20 20 21 21 21 21 20 20 20 19 18 18 16 16 15 14 14 14 13 14 15 15 13 11 8 11 14 3 8 9 11 14 14 17 14 13 17 19 21 12 25 21 33 12 13 9
21 20 21 21 22 22 22 21 19 20 20 20 18 17 16 16 15 14 14 14 15 16 15 13 9 8 9 5 7 7 12 12 15 11 14 14 13 18 18 19 9 29 10 10 13 15 13
21 21 22 22 22 23 23 22 20 21 21 21 20 18 17 15 14 13 13 15 15 14 12 9 7 9 11 5 11 13 13 14 12 12 13 11 13 17 20 5 15 3 11 22 11 11 20
20 22 22 23 22 23 24 21 23 23 23 20 21 19 17 14 13 12 12 10 7 8 8 10 12 9 11 13 11 14 10 11 9 11 13 14 14 16 16 10 7 7 13 24 3 5 3
21 22 23 23 23 24 24 24 22 23 22 20 19 19 16 14 12 11 11 5 7 7 12 12 10 10 5 12 5 10 11 9 12 12 14 17 15 13 20 16 7 20 16 14 19 20 18
22 22 23 23 24 23 26 23 24 22 21 20 20 19 15 13 11 9 6 8 8 10 6 16 8 3 6 8 11 11 13 11 13 13 15 15 13 14 14 17 11 14 15 1 12 20 22
21 22 23 24 24 24 24 25 23 24 22 21 20 18 13 11 11 5 12 17 7 8 7 8 11 16 9 9 14 15 14 15 15 13 15 17 14 15 9 13 13 16 15 16 8 18 26
21 22 23 24 25 26 24 24 27 24 23 23 21 18 13 9 4 12 15 2 7 6 8 11 10 5 6 10 1 12 13 16 11 13 14 11 10 10 10 14 15 14 13 15 15 10 13
22 24 24 25 26 27 28 28 26 25 25 24 22 17 11 7 12 9 7 6 8 8 4 8 9 6 7 12 9 11 9 14 12 12 7 13 5 7 10 10 11 12 14 11 14 14 17
23 23 25 26 27 28 29 27 26 26 27 26 22 16 9 6 7 14 12 8 8 9 3 7 8 9 10 12 7 9 8 9 14 12 12 12 9 4 12 12 12 11 12 15 13 12 11
21 23 24 26 28 29 29 28 30 30 28 26 21 14 6 8 6 10 8 8 9 7 2 7 13 9 15 6 8 9 10 13 14 13 15 18 15 10 4 12 18 14 14 10 8 9 9
19 21 22 24 26 29 30 31 31 30 31 29 24 12 13 9 11 11 8 10 13 5 10 6 3 2 2 3 10 5 10 15 11 7 12 10 6 7 6 6 12 12 14 8 10 8 9
19 20 21 23 24 28 30 31 32 33 33 30 25 6 7 11 14 6 8 12 9 10 5 8 7 10 8 7 8 3 10 8 9 11 12 9 3 6 1 6 8 9 11 16 13 9 9
19 20 21 23 24 26 28 30 32 35 36 27 6 8 13 7 7 8 9 16 6 7 6 8 13 2 12 13 6 10 9 8 2 1 11 15 8 2 12 11 16 8 8 10 6 8 8
20 20 20 22 23 25 27 29 30 33 39 24 6 7 9 8 7 9 12 4 4 5 7 8 10 7 8 9 3 15 5 8 5 6 4 12 10 15 8 6 8 5 11 12 13 9 9
21 19 19 21 23 25 27 29 29 29 38 11 8 11 8 5 8 10 10 12 4 10 2 7 4 13 10 10 8 9 2 13 8 9 11 14 9 9 14 15 11 6 7 9 8 6 10
18 18 18 20 22 24 27 28 28 24 21 10 7 12 3 6 10 10 5 2 1 9 6 4 5 0 8 8 7 9 9 10 6 7 12 11 9 10 12 6 6 3 6 9 10 12 12
18 17 19 20 22 23 26 28 30 28 18 7 7 7 6 5 10 12 15 6 9 8 8 5 11 8 9 9 7 5 8 3 7 3 5 5 12 14 12 15 15 11 10 10 12 11 13
18 18 19 19 20 22 25 26 29 33 31 5 6 6 10 8 6 10 14 11 11 9 10 6 6 8 11 12 12 6 8 6 4 13 4 6 12 12 14 16 17 15 14 15 14 13 14
16 16 18 19 20 21 23 25 27 32 39 5 7 6 10 14 17 14 11 12 14 12 9 7 11 8 15 7 12 13 10 7 7 6 8 8 12 12 14 15 15 16 14 18 18 14 16
16 17 18 18 19 20 21 23 24 26 27 7 9 8 8 10 14 12 11 12 13 4 9 8 12 11 12 8 11 13 9 13 15 14 13 13 11 11 14 14 15 14 15 10 7 8 10
15 16 17 18 18 19 20 21 22 20 17 8 10 9 8 11 13 12 14 13 12 10 10 13 4 6 10 8 11 13 15 18 17 16 14 14 11 9 11 12 15 13 4 3 7 9 10
14 14 16 17 18 18 20 21 20 20 17 9 9 9 8 9 13 18 14 9 13 13 11 12 17 10 7 7 10 13 13 17 18 16 14 11 9 8 9 11 14 16 5 3 2 7 12
14 14 15 16 17 17 18 19 19 19 17 10 10 8 7 8 9 17 13 14 10 12 13 15 13 6 6 9 9 14 12 13 9 6 7 6 8 7 9 12 12 7 8 7 6 6 11
14 14 14 14 14 16 17 17 18 19 17 9 8 12 8 11 18 16 12 9 12 12 10 15 6 8 9 8 11 12 13 15 14 15 9 9 7 9 9 10 9 5 6 4 6 5 8
13 13 14 13 13 14 15 16 16 17 17 9 10 12 7 9 17 23 22 16 11 10 9 8 7 3 7 10 10 11 12 13 15 13 9 10 8 8 10 11 12 9 4 4 5 4 9
13 13 14 14 14 14 14 14 15 14 15 12 7 7 8 8 15 22 22 22 21 18 14 13 14 12 5 5 8 8 12 12 11 10 7 10 12 8 8 7 3 1 6 6 6 6 9
Wind_Direction
359 355 353 353 351 351 352 350 348 345 340 334 330 327 323 318 313 309 302 302 299 299 299 302 309 319 309 233 255 120 159 182 204 217 254 274 303 337 331 255 5 28 45 101 101 128 119
357 354 355 357 357 355 353 352 350 345 342 337 331 328 323 318 314 306 299 297 294 294 294 298 308 313 247 257 112 139 165 164 209 223 259 264 316 333 299 316 7 334 263 74 119 126 97
357 359 360 359 358 356 354 351 351 348 344 339 332 329 323 317 310 304 298 295 291 289 288 294 302 290 264 254 27 161 172 202 229 247 278 333 335 312 317 314 19 4 346 1 158 135 109
1 360 358 358 356 355 352 351 347 346 343 341 335 330 323 315 309 301 295 292 287 283 285 283 276 258 263 178 308 185 194 214 246 275 282 298 306 302 277 269 13 40 356 336 136 143 138
1 0 358 357 355 354 351 350 346 345 343 341 335 329 321 314 306 300 293 291 283 278 262 274 240 228 250 125 214 223 214 233 217 243 257 277 287 288 290 29 54 16 271 284 168 178 159
1 1 358 357 354 352 349 347 347 346 343 338 336 327 319 311 305 303 298 283 312 276 224 225 260 245 235 228 185 201 202 252 255 241 248 245 259 267 267 240 127 232 185 243 272 120 239
1 360 358 355 351 350 348 347 344 342 339 338 330 324 316 309 309 315 312 206 204 195 226 254 181 242 137 82 108 218 197 218 261 260 259 252 244 260 274 320 313 200 280 328 11 338 323
359 357 355 351 349 347 348 344 341 339 338 335 330 322 313 310 311 316 272 255 28 332 240 225 177 301 319 175 179 198 187 217 228 252 252 248 267 260 271 293 342 298 288 32 46 322 293
356 354 352 349 347 345 342 342 341 341 338 335 331 322 315 312 318 247 235 281 336 325 260 159 194 218 185 211 231 168 190 213 247 229 252 270 287 319 327 318 295 282 285 286 168 229 254
354 352 349 347 345 345 341 339 342 341 338 339 333 323 315 316 277 239 226 255 293 330 267 137 179 141 190 231 147 138 187 227 222 255 285 258 285 306 321 285 271 281 325 341 325 308 280
354 353 351 348 346 344 343 341 340 339 340 338 332 322 307 252 318 286 19 304 338 265 260 153 116 109 186 245 116 182 193 239 269 278 233 278 197 289 265 283 2 303 310 318 290 280 282
355 353 351 349 347 345 343 339 338 338 337 336 332 325 316 196 230 256 294 307 269 237 127 133 134 175 191 222 173 127 191 244 285 280 264 264 283 243 288 329 281 275 276 260 247 245 261
355 353 350 349 347 345 344 341 340 338 335 333 328 320 258 311 280 346 319 277 245 272 221 145 162 194 215 159 138 174 190 206 234 229 234 214 219 209 194 276 272 244 263 277 237 226 243
347 349 350 348 347 346 344 344 342 339 336 332 325 312 213 249 292 293 286 268 266 340 47 73 261 269 246 153 149 188 201 222 206 260 292 296 164 159 142 313 348 327 310 312 328 290 326
346 346 346 348 347 348 346 345 344 341 335 334 315 204 244 247 221 272 274 272 313 12 30 323 177 220 166 174 298 214 241 337 42 0 322 339 76 138 185 353 316 328 303 355 314 313 302
344 344 345 347 347 347 346 346 346 342 335 340 307 271 249 161 215 238 266 270 26 351 325 292 295 17 304 149 192 210 180 100 10 43 317 319 293 234 141 219 225 228 343 307 307 283 288
345 342 343 345 346 347 346 346 346 346 337 334 243 252 121 179 230 255 261 311 10 109 347 301 306 300 261 329 310 306 45 120 125 321 307 303 293 302 289 274 14 337 312 312 313 282 315
342 342 342 345 346 347 347 346 348 352 340 352 299 278 125 226 240 248 270 26 355 292 148 284 295 305 327 358 311 312 332 62 39 347 313 316 317 289 291 285 93 340 298 270 285 290 293
338 343 345 346 346 347 347 345 345 355 6 316 291 304 159 235 255 277 237 289 219 302 263 305 302 138 354 308 316 297 307 88 44 333 23 346 329 327 304 97 113 218 1 351 306 288 290
342 347 345 345 344 348 347 345 342 341 353 309 278 296 206 206 262 288 296 308 261 157 293 323 311 329 291 274 220 283 298 205 105 85 85 318 271 266 285 321 330 316 312 309 304 303 312
337 344 341 341 347 347 348 347 344 338 338 280 248 321 6 298 327 338 327 319 308 278 180 270 290 272 288 302 302 267 248 268 271 130 214 271 281 297 305 314 316 316 308 300 289 283 285
338 340 339 343 346 346 350 350 349 343 334 233 339 347 344 302 296 282 270 269 279 269 282 272 274 254 298 293 300 305 334 324 291 220 256 263 283 270 272 272 275 278 288 277 271 267 276
339 338 340 343 346 347 351 351 354 354 340 329 13 337 310 290 294 281 273 287 315 334 314 305 294 310 300 5 341 336 336 307 294 284 277 282 288 299 295 312 307 288 275 287 329 323 325
341 343 342 345 349 349 351 352 353 356 2 315 310 323 291 289 290 292 292 337 300 299 308 285 303 282 295 343 305 285 275 276 261 265 271 274 274 278 273 279 268 277 315 339 309 300 282
333 339 342 341 342 345 347 348 347 348 347 318 306 301 308 290 304 300 311 289 275 282 259 262 279 288 278 304 278 274 270 265 246 249 245 250 264 275 280 265 264 269 17 10 35 347 3
327 331 333 335 335 339 341 343 344 343 346 315 303 292 291 289 250 351 317 304 309 289 271 246 228 276 310 284 278 266 262 271 286 171 179 254 277 259 266 289 289 352 73 23 357 268 21
323 325 327 331 335 336 338 341 340 341 346 330 293 296 289 284 275 283 272 313 321 308 274 292 306 166 215 253 257 258 261 258 249 261 245 214 219 270 262 252 266 28 59 19 267 48 356
324 324 325 327 330 331 333 336 337 338 344 337 297 296 287 289 287 290 294 294 280 261 276 290 302 242 263 259 255 266 263 264 265 261 260 272 264 236 243 256 261 40 327 326 50 21 7
322 323 325 326 327 329 330 331 334 330 336 339 276 308 341 280 287 312 294 288 288 287 289 291 285 282 310 266 237 263 270 272 278 272 225 245 246 278 308 340 44 9 16 51 15 343 328